Location: Düngen
(52.0952°N, 10.0219°E)
Time: 15:17:13
(UTC+00:00)

CENTAUR R/B - Pass Details

Date: 11 March 2026
Orbit: 625 x 1555 km, 63.4° (Epoch: 14 April)

Event Time Altitude Azimuth Distance (km) Brightness Sun altitude
Rises 18:50:12 0° 247° (WSW) 3,367 6.2 -15.0°
Reaches altitude 10° 18:52:29 10° 252° (WSW) 2,548 5.6 -15.3°
Maximum altitude 18:58:21 54° 330° (NNW) 1,252 3.3 -16.2°
Drops below altitude 10° 19:05:50 10° 47° (NE) 3,219 4.9 -17.3°
Sets 19:09:03 0° 52° (NE) 4,329 5.6 -17.8°
